星链-4281 (STARLINK-4281 )

导读

STARLINK-4281是美国太空探索技术公司SpaceX星链星座的一员,于2022年7月7日发射。星链计划旨在构建全球低轨卫星互联网,为偏远地区提供宽带服务。该卫星属于V1.0版本,配备相控阵天线与氪离子推进系统,运行在近地轨道,服务全球网络接入,是SpaceX扩展星链网络的批量发射卫星之一,助力实现全球无缝覆盖低延迟通信。

基本信息
目录编号:
53017
目录名称:
STARLINK-4281
国际标识:
2022-076AH
轨道中心:
EARTH
卫星名称:
星链-4281
卫星全名:
星链-4281 (STARLINK-4281 )
卫星状态:
在轨 (已飞行1520 天)
发射日期:
2022-07-07 UTC
国别 :
美国 (US)
星等 :
--
轨道信息
数据来源 国际轨道数据
星历时间: 2026-09-04T04:00:02+0800
10小时前
查看轨道信息
半长轴: 6863.996km
偏心率: 0.0001381
轨道倾角: 53.214°
近地点辐角 65.028°
升交点赤经 325.606°
平近点角 33.872°
近地点: 484.911km
远地点: 486.807km
周期: 94.325分钟
每日圈数: 15.266421
详细信息
固有亮度:
5
最大亮度:
2.5
卫星平台:
Starlink v1.5
覆盖范围:
全球
运营商:
太空探索技术公司
运营商所在国:
美国
制造商(研发单位):
太空探索技术公司
制造商所在国:
美国
使用方式:
暂无
卫星简介
星链(Starlink)计划是由太空探索技术公司(SpaceX)提出的一个巨型低轨卫星互联网星座项目,计划在2019年至2024年间在太空搭建由约1.2万颗卫星组成的“星链”网络,其中1584颗将部署在地球上空550千米处的近地轨道,并从2020年开始工作。该卫星仍在工作。
2D轨道图
3D轨道图
轨道高度分析图
轨道倾角分析图
轨道综合分析图
查看轨道综合分析图
交会数据列表
事件ID 空间交会对象 最接近时刻(TCA) 交会距离 交会风险概率(CRP) 交会风险指数(CRI) 操作
CDM_260901-115905-301705-812821
2026-09-01T
11:59:04+0000
0.440 km
远距离
2.146042E-4 高风险 0.82
CDM_260904-160405-301705-851621
2026-09-04T
16:04:13+0000
0.521 km
远距离
1.554286E-4 高风险 0.79
CDM_260904-112405-301705-487021
2026-09-04T
11:24:21+0000
0.517 km
远距离
1.530208E-4 高风险 0.79
CDM_260905-092605-301705-817521
2026-09-05T
09:26:11+0000
0.603 km
远距离
9.629737E-5 中风险 0.75
CDM_260904-125605-301705-917321
2026-09-04T
12:56:26+0000
0.765 km
远距离
5.307244E-5 中风险 0.69
CDM_260905-043605-301705-706921
2026-09-05T
04:36:48+0000
0.897 km
远距离
3.21635E-5 中风险 0.65
CDM_260904-084605-301705-724121
2026-09-04T
08:46:16+0000
1.173 km
极远距离
1.199047E-5 中风险 0.57
CDM_260905-171705-301705-614221
2026-09-05T
17:17:35+0000
1.247 km
极远距离
8.994987E-6 低风险 0.54
CDM_260901-133305-301705-812821
2026-09-01T
13:33:14+0000
1.403 km
极远距离
6.346713E-6 低风险 0.51
CDM_260901-102405-301705-812821
2026-09-01T
10:24:54+0000
1.408 km
极远距离
6.267747E-6 低风险 0.51